Torna al catalogo

DTUSAT-2

DTUSAT 2

AttivoRadioamatorePO
NORAD 40030·PAYLOAD·🇩🇰 Denmark

Lanciato Jun 19, 2014 da Dombarovsky

Loading…

Prossimi Passaggi (prossime 24 ore)

TLE

AggiornatoSource: AMSAT

Epoca: Sep 12, 2026, 23:38 UTC

1 40030U 14033W   26255.98513021  .00004682  00000-0  24761-3 0  9990
2 40030  98.0914 259.3803 0006209 302.4998  57.5632 15.15999708665988

Traccia DTUSAT-2 in tempo reale con AllMySat

Download on the App Store